Showing default

TANSTAAFL-2, 62378

Orbit data source: Space-Track

TANSTAAFL-2, 62378 is a payload satellite owned by True Anomaly (US) in LEO that was launched on Sat, 21 Dec 2024 UTC via an FALCON 9 launch vehicle from the Air Force Western Test Range (AFWTR). Payload-class satellites include a variety of spacecraft equipped with specific instruments for various scientific and technological missions. These include communications satellites like Starlink; space stations such as the ISS; scientific satellites like the Hubble; Earth observation satellites from companies like Planet Labs, Umbra, and HawkEye 360; GPS; miniature CubeSats for education and research; and military/defense satellites.

Loading next visibility...
Identifier
62378, 2024-247B
Orbit
LEO
Country
Flag of USUS
Related business
Manufacturer
True Anomaly
Mission
Operational Commercial Technology
Bus & Motor
JACKAL, Unknown motor
Mass
275 kg wet, 275 kg dry
Launch date (UTC)
2024-12-21 (1 year ago)
Launch vehicle
FALCON 9
Launch site
Air Force Western Test Range (AFWTR)
Object type
Payload
Rocket body
Debris
Shape & HBR
Box + 2 Pan, 2.3 m
Radar Cross Section
1.240 m², Large (>1 m²)

Expand to show TLE details & history
Last TLE update: 13 hours ago

TLE from 13 hours ago
0 TANSTAAFL-2
1 62378U 24247B   26094.00694411  .00016960  00000-0  60750-3 0  9994
2 62378  44.9890 338.6095 0001600 194.6595 165.4242 15.28592569 71602
Epoch: 2026-04-04T00:09Z
TLE epoch observation values (Epoch: 2026-04-04T00:09:59.971Z)
Latitude
-0.00001°
Longitude
143.7767°
Altitude
481.078 km
Speed
7.626 km/s
True Right ascension
22h 34m 26s
True Declination
0° 00' 00"
Sunlit
Object was in daylight at epoch
Visualization orbit readout
Latitude
Unknown
Longitude
Unknown
Altitude
Unknown
Speed
Unknown
Apparent Right ascension
Unknown
Apparent Declination
Unknown
Sunlit
N/A
Visualization observer readout
Local Sidereal Time
19:11:25
Azimuth
Unknown
Elevation
Unknown
Doppler factor
Unknown
Orbital elements
Apogee altitude
482.728 km
Perigee altitude
480.533 km
Semi-major axis
6,859.768 km
Eccentricity
0.00016
Inclination
44.989°
RAAN
338.6095°
Arg. of periapsis
194.6595°
True anomaly
165.42881°
Mean anomaly
165.4242°
Eccentric anomaly
165.42651°
Mean motion
3.82014 °/min
Orbital period
94.24 mins
BSTAR
0.0006075
Loading maneuver chart data...
Computing Atmospheric mass density...
Loading historical data...
Loading historical data...
Loading historical data...
Loading historical data...
Loading historical data...
Loading historical data...
Loading historical data...

Documentation

Showing up to 5 results
|